Regional Weather Roundup
Issued by NWS Pendleton, OR

Home | Current Version | Previous Version | Text Only | Print | Product List | Glossary On
Versions: 1 2 3 4 5 6 7 8 9 10 11 12 13 14 15 16 17 18 19 20 21 22 23 24 25 26 27 28 29 30 31 32 33 34 35 36 37 38 39 40 41 42 43 44 45 46 47 48 49 50
251
ASUS46 KPDT 031425
RWRPDT
PENDLETON REGIONAL WEATHER ROUNDUP
NATIONAL WEATHER SERVICE PENDLETON OREGON
700 AM PDT TUE MAY 3 2016

NOTE: FAIR INDICATES FEW OR NO CLOUDS BELOW 12,000 FEET WITH NO
SIGNIFICANT WEATHER AND/OR OBSTRUCTIONS TO VISIBILITY.

# INDICATES UNOFFICIAL STATION AND DATA

WAZ520-031510-
EAST SLOPES OF WASHINGTON CASCADES

CITY            SKY/WX      TMP DP  RH  WIND    PRES   REMARKS
#CLE ELUM HS    N/A         43  38  82  CALM    29.99R
#CLE ELUM 2NW   N/A         46  40  79  S1      N/A
#CLE ELUM LAKE  N/A         51  40  66  CALM    29.92R
#GLENWOOD       N/A         49  46  89  CALM    29.96S
#MANASTASH CYN  N/A         48  37  65  CALM    30.01S
#NELSON 3SW     N/A         49  42  77  CALM    30.14S
#NILE           N/A         46  39  76  W2      29.29R
#RONALD 2NW     N/A         51  N/A N/A CALM    29.91R
#TEANAWAY 4NE   N/A         41  40  96  CALM    N/A
#TROUT LAKE 1NE N/A         52  45  77  CALM    29.96S
#TROUT LAKE 1E  N/A         51  45  80  CALM    29.98R
$$

WAZ521-031510-
SIMCOE HIGHLANDS

CITY            SKY/WX      TMP DP  RH  WIND    PRES   REMARKS
#BICKLETON HS   N/A         55  29  37  CALM    N/A
#CENTERVILLE 1SWN/A         47  40  76  CALM    29.95R
#GOLDENDALE 1NE N/A         48  29  47  N3      N/A
#GOODNOE HILLS  N/A         62  45  54  W7      29.91R
#LYLE 6NE       N/A         57  43  59  SE1     29.93R
$$

WAZ026-031510-
KITTITAS VALLEY

CITY            SKY/WX      TMP DP  RH  WIND    PRES   REMARKS
ELLENSBURG AP   SUNNY       50  40  68  CALM    30.02R
YTC-OPS AREA    SUNNY       60  35  39  N6      30.05S
#ELLENSBURG CWU N/A         50  41  71  N1      29.92R
#ELLENSBURG 3NE N/A         49  42  77  CALM    30.02R
#ELLENSBURG     N/A         55  46  72  CALM    N/A
#ELLENSBURG 1E  N/A         44  N/A N/A CALM    N/A
#KITTITAS 3S    N/A         44  42  93  CALM    29.98R
#THORP 6N       N/A         52  41  66  NE3     29.97S
$$

WAZ027-031510-
YAKIMA VALLEY

CITY            SKY/WX      TMP DP  RH  WIND    PRES   REMARKS
YAKIMA AIRPORT  SUNNY       52  41  66  W3      30.01R
YAKIMA-VAGABOND SUNNY       55  40  57  W2      29.99R
#DONALD 2NE     N/A         66  13  13  NW1     28.84R
#GRANDVIEW      N/A         55  43  64  CALM    29.98R
#MABTON         N/A         54  45  71  CALM    29.98R
#NACHES 2SW     N/A         56  43  62  W5      30.01R
#TERRACE HTS    N/A         50  43  77  CALM    29.93R
#TOPPENISH      N/A         54  45  71  CALM    29.88R
#WEST VALLEY    N/A         51  42  71  CALM    29.95R
#W YAKIMA       N/A         57  43  59  W2      29.96R
#WHITE SWAN 5E  N/A         51  45  80  CALM    29.97R
#WILEY CITY 3W  N/A         61  41  48  CALM    29.97R
$$

WAZ028-031510-
LOWER COLUMBIA BASIN...WASHINGTON

CITY            SKY/WX      TMP DP  RH  WIND    PRES   REMARKS
HANFORD         PTCLDY      56  42  59  NW7     29.98R
PASCO           SUNNY       48  44  86  CALM    29.99R
PROSSER AWOS    N/A         54  46  74  S2      30.02R
RICHLAND AWOS   SUNNY       54  46  74  W5      30.01R
#BENTON CITY    N/A         58  45  62  CALM    29.89R
#CONNELL 5N     N/A         57  45  64  NE5     29.97R
#CONNELL 5NW    N/A         53  45  74  E2      29.93S
#ELTOPIA 6NW    N/A         55  45  69  CALM    28.96R
#KAHLOTUS       N/A         51  43  74  S8      29.98R
#KENNEWICK 3S   N/A         55  45  69  CALM    29.97R
#PATERSON       N/A         57  43  59  CALM    29.96R
#SAGEMOOR 2W    N/A         55  47  74  CALM    29.81R
#TOUCHET 2S     N/A         53  46  77  NW2     29.95R
#WEST PASCO     N/A         54  46  74  CALM    30.06R
$$

WAZ029-031510-
FOOTHILLS OF THE BLUES...WASHINGTON

CITY            SKY/WX      TMP DP  RH  WIND    PRES   REMARKS
WALLA WALLA AP  SUNNY       69  35  28  SE8     29.99R
#CLYDE 6NW      N/A         58  46  64  CALM    29.97R
#DAYTON SCHOOL  N/A         67  31  26  N7      30.03S
#LOWDEN 2SE     N/A         57  47  69  CALM    29.94R
#PLEASANT VIEW 1N/A         57  44  62  CALM    30.00R
#PRESCOTT       N/A         55  46  72  CALM    29.96R
#SUDBURY        N/A         73  N/A N/A CALM    N/A
#WHITMAN COLLEGEN/A         68  38  33  N3      29.99R
#WAITSBURG 5S   N/A         69  35  28  E8      30.03R
#WAITSBURG 8N   N/A         68  19  15  NE1     29.88R
#WALLA WALLA U  N/A         59  42  53  CALM    29.94R
#WHITMAN MISSIONN/A         54  46  74  CALM    29.97R
$$

WAZ030-031510-
BLUE MOUNTAINS...WASHINGTON

CITY            SKY/WX      TMP DP  RH  WIND    PRES   REMARKS
#DIXIE 5SE      N/A         68  29  23  N17G28  29.99R
$$

ORZ009-041-WAZ024-031510-
COLUMBIA RIVER GORGE

CITY            SKY/WX      TMP DP  RH  WIND    PRES   REMARKS
HOOD RIVER AP   MOCLDY      55  45  69  CALM    30.01R
THE DALLES AP   MOCLDY      62  43  50  E3      29.99R
#ARLINGTON AIRPON/A         61  43  51  W1      29.97R
#CELILO DOT     N/A         62  46  56  S8      N/A
#MARYHILL 2W    N/A         61  44  53  CALM    N/A
#MOSIER 1S      N/A         60  32  35  CALM    30.00R
#MURDOCK        N/A         61  46  58  NW3     29.95R
#RUFUS DOT      N/A         57  47  69  S5      N/A

$$

ORZ510-031510-
NORTH CENTRAL OREGON

CITY            SKY/WX      TMP DP  RH  WIND    PRES   REMARKS
#ANTELOPE       N/A         51  40  66  CALM    29.82F
#COW CYN RST AREN/A         57  38  49  SE2     N/A
#DUFUR 9E       N/A         61  42  50  N2      29.97R
#GRASS VALLEY   N/A         56  46  69  S1      N/A
#GRASS VALLEY 1SN/A         58  45  62  CALM    29.96S
#KENT DOT       N/A         57  38  49  N1      N/A
#MAUPIN SCHOOL  N/A         57  45  64  CALM    30.04R
#MORO SCHOOL    N/A         54  49  83  CALM    30.01S
#SHANIKO 5WSW   N/A         54  34  47  S6      N/A
#TYGH VALLEY 2NEN/A         53  44  71  CALM    29.96S
#WAPANITIA AIRPON/A         56  44  64  W1      29.97R
#WASCO DOT      N/A         54  44  69  CALM    N/A
#WASCO 5NE      N/A         58  45  62  CALM    29.96R
$$

ORZ511-031510-
CENTRAL OREGON

CITY            SKY/WX      TMP DP  RH  WIND    PRES   REMARKS
BEND AIRPORT    MOCLDY      55  39  55  CALM    30.07R
MADRAS AIRPORT  MOCLDY      54  43  66  CALM    30.06R
PRINEVILLE AP   PTCLDY      55  34  45  CALM    30.08R
REDMOND AIRPORT MOCLDY      53  36  52  SE6     30.06R
#ASHWOOD SCHOOL N/A         49  37  63  CALM    30.01S
#BEND 1SW       N/A         52  42  69  SW2     N/A
#BEND-AWBREY    N/A         56  41  57  SE6     29.94R
#BEND-KIM LN    N/A         52  42  69  SW2     30.05R
#CULVER         N/A         55  40  57  CALM    29.93R
#LAKE BILLY CHINN/A         57  N/A N/A CALM    30.11S
#POWELL BUTTE 3EN/A         52  36  54  E2      N/A
#POWELL BUTTE   N/A         59  40  49  W1      29.94R
#PRINEVILLE 3N  N/A         48  44  86  CALM    29.99R
#WARM SPRINGS   N/A         56  45  66  CALM    30.00R

$$


ORZ509-031510-
EAST SLOPES OF OREGON CASCADES

CITY            SKY/WX      TMP DP  RH  WIND    PRES   REMARKS
SISTERS AWOS    N/A         46  41  83  CALM    30.03R
#BLUE BOX PASS  N/A         50  N/A N/A SE2     N/A
#BLACK BUTTE RNCN/A         48  43  83  CALM    29.95S
#CAMP SHERMAN   N/A         47  41  79  CALM    30.04R
#LA PINE DOT    N/A         41  37  86  CALM    N/A
#LA PINE 4NW    N/A         39  35  85  CALM    30.04R
#LAVA BUTTE DOT N/A         46  39  76  CALM    N/A
#SISTERS AIRPOR N/A         48  46  93  CALM    30.17S
#SISTERS ODOT   N/A         46  N/A N/A CALM    N/A
#SISTERS 1NW    N/A         46  40  79  N6      N/A
#SISTERS 3N     N/A         48  39  71  CALM    30.06S
#SUNRIVER       N/A         44  39  82  CALM    30.01R
#SUTTLE LK DOT  N/A         44  41  89  NE7     N/A
#TUMALO 3W      N/A         56  41  57  CALM    29.81S
#WANOGA BUTTE D N/A         47  34  60  W3      N/A

$$

ORZ044-031510-
LOWER COLUMBIA BASIN...OREGON

CITY            SKY/WX      TMP DP  RH  WIND    PRES   REMARKS
HERMISTON       SUNNY       54  40  59  SW5     29.97R
#BOARDMAN SCHOOLN/A         53  45  74  CALM    29.99R
#BOARDMAN 8SW   N/A         55  45  69  N1      29.96R
#ECHO 8SW       N/A         55  43  64  SW2     29.99R
#I-84 EX 198 DOTN/A         69  36  30  NE12    N/A
#UMATILLA SCHOOLN/A         56  46  69  CALM    29.97F
#UMATILLA       N/A         56  41  57  CALM    29.91R
$$

ORZ507-031510-
NORTHERN FOOTHILLS OF THE BLUES

CITY            SKY/WX      TMP DP  RH  WIND    PRES   REMARKS
PENDLETON AIRPT SUNNY       64  30  28  SE6     29.99R
#ADAMS 3WNW     N/A         66  38  36  SE5     29.95F
#ATHENA         N/A         66  36  33  CALM    29.97S
#CAYUSE         N/A         70  35  28  SE29    29.90S
#HELIX SCHOOL   N/A         62  38  41  N10     29.96S
#HELIX 3N       N/A         63  35  35  SE13    29.99R
#HELIX 6SW      N/A         63  38  39  E3      29.99R
#HOLDMAN 5SE    N/A         52  39  61  CALM    30.00R
#HOLDMAN 6E     N/A         63  37  38  CALM    29.77R
#M-F FERNDALE   N/A         56  40  55  CALM    29.97R
#M-F GROVE ELEM N/A         72  30  21  E2      29.96R
#M-FREEWATER 5SEN/A         65  38  37  E9      29.99R
#PENDLETON DNTN N/A         50  37  61  CALM    30.01S
#PDT AQUATIC CTRN/A         53  34  48  CALM    29.99S
#PDT SUNRIDGE   N/A         58  36  44  CALM    30.00R
#PENDLETON 7NW  N/A         60  41  49  CALM    27.45S
#PILOT ROCK     N/A         73  31  21  E14     29.99S
#TUTUILLA       N/A         67  35  30  CALM    29.95S
#UMAPINE 2E     N/A         65  43  45  NW1     29.95R
#WESTON SCHOOL  N/A         67  29  24  S8      29.92R

$$

ORZ508-031510-
SOUTHERN FOOTHILLS OF THE BLUES

CITY            SKY/WX      TMP DP  RH  WIND    PRES   REMARKS
#AJAX           N/A         60  35  39  CALM    27.77R
#CONDON SCHOOL  N/A         60  32  35  W1      30.00R
#CONDON 5W      N/A         59  27  29  SW6     30.03R
#HEPPNER EOC    N/A         64  33  31  W6      29.88R
#HEPPNER 4NE    N/A         63  33  32  N1      29.94R
#LEXINGTON 2SE  N/A         63  34  34  CALM    29.97R
#OLEX 4N        N/A         57  43  59  SW2     29.98R
#RUGGS 5NE      N/A         67  31  26  E5      30.20R
#RUGGS 2SW      N/A         63  29  28  S10     29.94R

$$

ORZ502-503-031510-
BLUE MOUNTAINS

CITY            SKY/WX      TMP DP  RH  WIND    PRES   REMARKS
MEACHAM         SUNNY       40  32  73  CALM    30.11S
#BATTLE MTN DOT N/A         52  32  46  S8      N/A
#GREENHORN 9SW  N/A         38  34  85  CALM    26.33R
#HARDMAN 10S    N/A         53  29  39  S1      30.09R
#HEPPNER 15SE   N/A         57  30  35  S3      30.00
#LADD CYN SMT   N/A         43  28  55  E12     N/A    WCI 37
#LADD CREEK ODOTN/A         43  35  73  SW2     N/A
#N POWDER DOT   N/A         37  35  92  W3      N/A
#PIKES PEAK     N/A         65  27  24  S22G31  27.99S
#TOLLGATE       N/A         55  30  38  CALM    30.01R
#TROY SCHOOL    N/A         50  43  77  CALM    29.96R
#UKIAH          N/A         35  33  92  CALM    30.01R
#WESTON 4E      N/A         60  32  35  E10     29.93R
$$

ORZ505-031510-
JOHN DAY BASIN

CITY            SKY/WX      TMP DP  RH  WIND    PRES   REMARKS
JOHN DAY        SUNNY       54  32  43  E6      30.13R
#DAYVILLE SCHOOLN/A         50  32  50  CALM    30.07R
#MITCHELL       N/A         60  36  41  CALM    30.20R
#MITCHELL 8NW   N/A         63  30  29  CALM    30.13S
#MONUMENT HS    N/A         40  40  100 CALM    30.06R
#MT. VERNON 5SE N/A         60  32  35  CALM    30.08R
#SPRAY SCHOOL   N/A         50  N/A N/A CALM    N/A
#WINLOCK        N/A         58  35  42  CALM    30.05R
$$

ORZ506-031510-
OCHOCO AND JOHN DAY HIGHLANDS

CITY            SKY/WX      TMP DP  RH  WIND    PRES   REMARKS
#BUCK CREEK DOT N/A         50  32  50  SE8     N/A
#HORSE RIDGE DO N/A         39  29  67  SW2     N/A
#KEYES SMT DOT  N/A         51  28  41  E5      N/A
#PAULINA SCHOOL N/A         42  34  73  CALM    29.34R
#PINE MTN OBS   N/A         48  34  58  S8      N/A
#PRAIRIE CITY   N/A         39  32  76  CALM    30.10R
#SENECA         N/A         33  N/A N/A CALM    N/A
#SENECA 9NW     N/A         29  27  92  CALM    30.10R
$$

ORZ049-031510-
GRANDE RONDE VALLEY

CITY            SKY/WX      TMP DP  RH  WIND    PRES   REMARKS
LA GRANDE       SUNNY       48  30  49  N3      30.14R
#COVE           N/A         44  40  86  CALM    30.16R
#COVE SCHOOL    N/A         42  38  86  CALM    30.14R
#ELGIN 3N       N/A         42  36  79  CALM    30.12R
#ELGIN 1E       N/A         37  32  82  CALM    N/A
#ISLAND CITY 4N N/A         53  50  89  CALM    30.03S
#LADD CYN DOT   N/A         49  34  56  SE3     N/A
#UNION 1S       N/A         49  37  63  CALM    29.99R
$$

ORZ050-031510-
WALLOWA COUNTY

CITY            SKY/WX      TMP DP  RH  WIND    PRES   REMARKS
JOSEPH AIRPORT  SUNNY       50  34  54  CALM    30.17R
#ENTERPRISE AP  N/A         49  29  46  CALM    30.08R
#ENTERPRISE HS  N/A         41  37  86  CALM    30.16R
#IMNAHA SCHOOL  N/A         46  42  86  S2      30.14R
#IMNAHA 10S     N/A         47  37  68  SW5     30.13R
#JOSEPH 3N      N/A         41  32  70  CALM    30.16R
#JOSEPH 3W      N/A         54  38  55  CALM    N/A
#LOSTINE        N/A         45  38  76  CALM    29.89S
#MT HOWARD 8000 N/A         43  19  38  S6      30.29R
#PROMISE 1S     N/A         49  37  63  CALM    30.14F
#WALLOWA SCHOOL N/A         41  36  82  CALM    30.12R



$$



USA.gov is the U.S. government's official web portal to all federal, state and local government web resources and services.